Weather History for Howe Sound, BC

Change the Weather History Date:

Wednesday, February 19, 2014

  Actual Average Record
Temperature  
Mean Temperature 41 °F -  
Max Temperature 45 °F - - ()
Min Temperature 35 °F - - ()
Degree Days  
Heating Degree Days 24    
Moisture  
Dew Point 33 °F    
Average Humidity 74    
Maximum Humidity 94    
Minimum Humidity 45    
Precipitation  
Precipitation 0.00 in - - ()
Sea Level Pressure  
Sea Level Pressure 29.94 in    
Wind  
Wind Speed 6 mph ()    
Max Wind Speed 17 mph    
Max Gust Speed -    
T = Trace of Precipitation, MM = Missing Value Source: Averaged Metar Reports

Daily Weather History Graph

Daily Weather History Graph

Search for Another Location

Airport:

Trip Planner

Search our weather history database for the weather conditions in past years. The results will help you decide how hot, cold, wet, or windy it might be!

Date:

Astronomy

Feb. 19, 2014 Rise Set
Actual Time 7:15 AM PST 5:39 PM PST
Civil Twilight 6:42 AM PST 6:12 PM PST
Nautical Twilight 6:05 AM PST 6:49 PM PST
Astronomical Twilight 5:28 AM PST 7:26 PM PST
Moon 11:10 PM PST (2/19) 8:56 AM PST (2/19)
Length of Visible Light 11h 30m
Length of Day
10h 24m
Waning Gibbous, 79% of the Moon is Illuminated
Feb 19
Waning Gibbous
Feb 22
Last Quarter
Mar 1
New
Mar 8
First Quarter
Mar 16
Full

Hourly Weather History & Observations

Time (PST) Temp. Windchill Dew Point Humidity Pressure Visibility Wind Dir Wind Speed Gust Speed Precip Events Conditions
12:00 AM 41.4 °F 39.4 °F 33.3 °F 73% 29.73 in - SW 3.5 mph - N/A   Unknown
1:00 AM 41.2 °F 36.0 °F 35.6 °F 81% 29.75 in - South 8.1 mph - N/A   Unknown
2:00 AM 41.0 °F 38.0 °F 33.6 °F 75% 29.78 in - SW 4.6 mph - N/A   Unknown
3:00 AM 39.4 °F - 34.3 °F 82% 29.80 in - NNW 2.3 mph - N/A   Unknown
4:00 AM 39 °F - 35 °F 78% 29.82 in - NNW 5.8 mph - -  
4:00 AM 39.4 °F 35.2 °F 34.5 °F 83% 29.82 in - NW 5.8 mph - N/A   Unknown
5:00 AM 38.7 °F 36.3 °F 34.9 °F 86% 29.84 in - NW 3.5 mph - N/A   Unknown
6:00 AM 39.0 °F - 35.2 °F 86% 29.87 in - South 2.3 mph - N/A   Unknown
7:00 AM 37.8 °F 34.2 °F 33.6 °F 85% 29.89 in - NW 4.6 mph - N/A   Unknown
8:00 AM 37.4 °F 32.1 °F 33.3 °F 85% 29.92 in - NNW 6.9 mph - N/A   Unknown
9:00 AM 37.8 °F 35.3 °F 32.2 °F 80% 29.95 in - WNW 3.5 mph - N/A   Unknown
10:00 AM 40 °F - 35 °F 74% 29.97 in - South 4.6 mph - -  
10:00 AM 40.5 °F 36.5 °F 34.5 °F 79% 29.97 in - South 5.8 mph - N/A   Unknown
11:00 AM 42.4 °F 36.5 °F 34.7 °F 74% 29.99 in - South 10.4 mph - N/A   Unknown
12:00 PM 43.9 °F 39.3 °F 31.1 °F 61% 30.01 in - South 8.1 mph - N/A   Unknown
1:00 PM 44.1 °F 38.6 °F 30.7 °F 59% 30.01 in - South 10.4 mph - N/A   Unknown
2:00 PM 43.9 °F 36.5 °F 32.2 °F 63% 30.01 in - South 16.1 mph - N/A   Unknown
3:00 PM 43.3 °F 36.8 °F 30.6 °F 61% 30.02 in - SSW 12.7 mph - N/A   Unknown
4:00 PM 44 °F - 30 °F 45% 30.03 in - SW 12.7 mph - -  
4:00 PM 43.9 °F 37.2 °F 29.7 °F 57% 30.03 in - SW 13.8 mph - N/A   Unknown
5:00 PM 43.5 °F 40.9 °F 30.2 °F 59% 30.03 in - WSW 4.6 mph - N/A   Unknown
6:00 PM 42.8 °F - 31.8 °F 65% 30.03 in - NNW 2.3 mph - N/A   Unknown
7:00 PM 43.2 °F 38.4 °F 33.1 °F 68% 30.03 in - WSW 8.1 mph - N/A   Unknown
8:00 PM 42.3 °F 34.1 °F 31.3 °F 65% 30.02 in - SW 17.3 mph - N/A   Unknown
9:00 PM 39.6 °F 30.6 °F 34.2 °F 81% 30.02 in - SW 17.3 mph - N/A   Unknown
10:00 PM 38 °F - 35 °F 82% 30.00 in - NW 10.4 mph - -  
10:00 PM 37.6 °F 30.0 °F 34.5 °F 89% 30.00 in - NW 11.5 mph - N/A   Unknown
11:00 PM 35.4 °F 27.3 °F 33.8 °F 94% 29.97 in - North 11.5 mph - N/A   Unknown